Find Starlink 30496

NORAD ID: 57919 Int'l Des: 2023-147 Owner: SPXS Country: US Constellation: starlink operational
LEOCIRCULAR

Live Position

Loading 3D Globe...

About Starlink 30496

Description loading...

Upcoming Passes

Passes for default location (London). Set your location on the main map for personalized predictions.

Altitude History

Loading altitude history...

Two-Line Element Set

1 57919U 23147G 26132.80546345 .00001053 00000-0 47762-4 0 9996
2 57919 43.0013 323.1192 0000572 273.2508 86.8278 15.27579544146432
Epoch: May 12, 2026 • Age: 24 hours

Current Status

Altitude 483.1 km
Velocity 7.63 km/s
Sub-Earth Point 24.06°N, 54.99°W
Launch Date Sep 24, 2023
Age 2.6 years
Type internet

Technical Details

Classification Payload
Mass 730.00 kg
Dry Mass 700.00 kg
Total Mass 730.00 kg
Length 0.30 m
Diameter 4.10 m
Span 29.00 m
Shape Box + pan
Manufacturer SPXS
Bus Type Starlink V2M
Phase Status In Orbit
Owner/State SPXS/US

Most Searched